Kayseri, Turkey

1:38 PM +03 on January 16, 2018 (GMT +0300)
Erkilet Air Base

Weather History for LTAU - September, 2013

Change the Weather History Date:

Friday, September 6, 2013

  Actual Average Record
Temperature  
Mean Temperature 55 °F -  
Max Temperature 74 °F 74 °F 93 °F (2007)
Min Temperature 36 °F 44 °F 36 °F (2013)
Degree Days  
Heating Degree Days 10    
Growing Degree Days 5 (Base 50)    
Moisture  
Dew Point 34 °F    
Average Humidity 49    
Maximum Humidity 81    
Minimum Humidity 12    
Precipitation  
Precipitation 0.00 in - - ()
Sea Level Pressure  
Sea Level Pressure 30.02 in    
Wind  
Wind Speed 3 mph ()    
Max Wind Speed 8 mph    
Max Gust Speed 17 mph    
Visibility 8.3 miles    
Events      
Averages and records for this station are not official NWS values.
T = Trace of Precipitation, MM = Missing Value Source: Averaged Metar Reports

Daily Weather History Graph

Daily Weather History Graph

Search for Another Location

Airport or City:

Trip Planner

Search our weather history database for the weather conditions in past years. The results will help you decide how hot, cold, wet, or windy it might be!

Date:

Astronomy

Sep. 06, 2013 Rise Set
Actual Time 6:11 AM EEST 7:00 PM EEST
Civil Twilight 5:44 AM EEST 7:27 PM EEST
Nautical Twilight 5:12 AM EEST 7:59 PM EEST
Astronomical Twilight 4:39 AM EEST 8:32 PM EEST
Moon 7:01 AM EEST (9/6) 7:15 PM EEST (9/6)
Length of Visible Light 13h 43m
Length of Day
12h 49m
New Moon, 1% of the Moon is Illuminated
Sep 6
New Moon
Sep 12
First Quarter
Sep 19
Full
Sep 27
Last Quarter
Oct 5
New

Hourly Weather History & Observations

Time (EEST) Temp. Windchill Dew Point Humidity Pressure Visibility Wind Dir Wind Speed Gust Speed Precip Events Conditions
12:20 AM 53.6 °F - 37.4 °F 54% 30.06 in - Calm Calm - N/A   Clear
12:50 AM 46.4 °F - 37.4 °F 71% 30.06 in - Variable 2.3 mph - N/A   Clear
1:20 AM 48.2 °F - 37.4 °F 66% 30.04 in - NNE 4.6 mph - N/A   Clear
1:50 AM 42.8 °F - 35.6 °F 76% 30.04 in - NE 2.3 mph - N/A   Clear
2:20 AM 44.6 °F 43.1 °F 35.6 °F 71% 30.04 in - NNE 3.5 mph - N/A   Clear
2:50 AM 42.8 °F - 35.6 °F 76% 30.04 in - Variable 2.3 mph - N/A   Clear
3:00 AM 42 °F - 35 °F 70%  in 12 mi East 2.3 mph - -  
3:20 AM 42.8 °F - 35.6 °F 76% 30.04 in - Calm Calm - N/A   Clear
3:50 AM 39.2 °F - 33.8 °F 81% 30.04 in - Calm Calm - N/A   Clear
4:20 AM 39.2 °F - 33.8 °F 81% 30.04 in - NE 1.2 mph - N/A   Clear
4:50 AM 39.2 °F - 33.8 °F 81% 30.04 in - NNE 2.3 mph - N/A   Clear
5:20 AM 39.2 °F - 33.8 °F 81% 30.04 in - NNE 1.2 mph - N/A   Clear
5:50 AM 39.2 °F 37.0 °F 33.8 °F 81% 30.04 in - NNE 3.5 mph - N/A   Clear
6:20 AM 37.4 °F 34.9 °F 32.0 °F 81% 30.04 in - NE 3.5 mph - N/A   Clear
6:50 AM 41.0 °F 38.0 °F 35.6 °F 81% 30.04 in - NE 4.6 mph - N/A   Clear
7:20 AM 46.4 °F - 35.6 °F 66% 30.06 in - Variable 1.2 mph - N/A   Clear
7:50 AM 48.2 °F - 37.4 °F 66% 30.04 in - NE 3.5 mph - N/A   Clear
8:20 AM 51.8 °F - 37.4 °F 58% 30.04 in - North 3.5 mph - N/A   Clear
8:50 AM 53.6 °F - 37.4 °F 54% 30.04 in - Variable 2.3 mph - N/A   Clear
9:00 AM 54 °F - 37 °F 40%  in 12 mi NNE 2.3 mph - -  
9:20 AM 57.2 °F - 37.4 °F 48% 30.04 in - Variable 1.2 mph - N/A   Clear
9:50 AM 59.0 °F - 35.6 °F 42% 30.04 in - Variable 1.2 mph - N/A   Clear
10:20 AM 62.6 °F - 35.6 °F 37% 30.04 in - Variable 1.2 mph - N/A   Clear
10:50 AM 62.6 °F - 35.6 °F 37% 30.04 in - Variable 1.2 mph - N/A   Clear
11:20 AM 66.2 °F - 33.8 °F 30% 30.01 in - North 1.2 mph - N/A   Clear
11:50 AM 66.2 °F - 33.8 °F 30% 30.01 in - West 5.8 mph - N/A   Clear
12:20 PM 68.0 °F - 35.6 °F 30% 30.01 in - Variable 3.5 mph 17.3 mph N/A   Clear
12:50 PM 68.0 °F - 33.8 °F 28% 30.01 in - SSW 4.6 mph - N/A   Clear
1:20 PM 69.8 °F - 32.0 °F 25% 30.01 in 6.2 mi West 8.1 mph - N/A   Partly Cloudy
1:50 PM 71.6 °F - 32.0 °F 23% 29.98 in 6.2 mi Variable 5.8 mph - N/A   Partly Cloudy
2:20 PM 71.6 °F - 30.2 °F 22% 29.98 in 6.2 mi Variable 6.9 mph - N/A   Partly Cloudy
2:50 PM 71.6 °F - 30.2 °F 22% 29.98 in 6.2 mi West 6.9 mph - N/A   Partly Cloudy
3:00 PM 72 °F - 30 °F 12%  in 12 mi West 6.9 mph - -   Scattered Clouds
3:20 PM 73.4 °F - 24.8 °F 16% 29.98 in 6.2 mi West 6.9 mph - N/A   Partly Cloudy
3:50 PM 73.4 °F - 23.0 °F 15% 29.98 in 6.2 mi West 8.1 mph - N/A   Partly Cloudy
4:20 PM 73.4 °F - 28.4 °F 19% 29.98 in 6.2 mi WNW 3.5 mph - N/A   Partly Cloudy
4:50 PM 73.4 °F - 28.4 °F 19% 29.98 in - Variable 3.5 mph - N/A   Clear
5:20 PM 73.4 °F - 28.4 °F 19% 29.98 in - Variable 3.5 mph - N/A   Clear
5:50 PM 73.4 °F - 30.2 °F 20% 29.98 in - WNW 3.5 mph - N/A   Clear
6:20 PM 71.6 °F - 33.8 °F 25% 29.98 in - NW 5.8 mph - N/A   Clear
6:50 PM 68.0 °F - 33.8 °F 28% 29.98 in - North 4.6 mph - N/A   Clear
7:20 PM 62.6 °F - 35.6 °F 37% 30.01 in - North 3.5 mph - N/A   Clear
7:50 PM 64.4 °F - 33.8 °F 32% 30.01 in - North 4.6 mph - N/A   Clear
8:20 PM 57.2 °F - 35.6 °F 44% 30.04 in - NNE 2.3 mph - N/A   Clear
8:50 PM 55.4 °F - 37.4 °F 51% 30.04 in - SE 1.2 mph - N/A   Clear
9:00 PM 54 °F - 37 °F 41%  in 12 mi SE 1.2 mph - -  
9:20 PM 55.4 °F - 37.4 °F 51% 30.04 in - SSE 1.2 mph - N/A   Clear
9:50 PM 53.6 °F - 37.4 °F 54% 30.04 in - Calm Calm - N/A   Clear
10:20 PM 50.0 °F - 37.4 °F 62% 30.06 in - Calm Calm - N/A   Clear
10:50 PM 50.0 °F - 39.2 °F 66% 30.06 in - Variable 1.2 mph - N/A   Clear
11:20 PM 48.2 °F - 37.4 °F 66% 30.06 in - Variable 1.2 mph - N/A   Clear
11:50 PM 48.2 °F - 37.4 °F 66% 30.06 in - NNE 2.3 mph - N/A   Clear